Lynchburg, VA

9:16 PM EDT on August 29, 2016 (GMT -0400)
Lynchburg Regional-Glenn

Weather History for KLYH - November, 2013

Change the Weather History Date:

Monday, November 11, 2013

  Actual Average Record
Temperature  
Mean Temperature 42 °F 48 °F  
Max Temperature 58 °F 61 °F 78 °F (1935)
Min Temperature 25 °F 36 °F 19 °F (1973)
Degree Days  
Heating Degree Days 23 17  
Month to date heating degree days 182 166  
Since 1 July heating degree days 461 513  
Cooling Degree Days 0 0  
Month to date cooling degree days 0 0  
Year to date cooling degree days 1184 1031  
Moisture  
Dew Point 25 °F    
Average Humidity 55    
Maximum Humidity 85    
Minimum Humidity 25    
Precipitation  
Precipitation 0.00 in 0.11 in 2.81 in (2009)
Month to date precipitation 0.02 1.27  
Year to date precipitation 36.56 36.19  
Snow  
Snow 0.00 in - - ()
Month to date snowfall 0.0  
Since 1 July snowfall 0.0  
Since 1 September snowfall 0.0  
Snow Depth 0.00 in    
Sea Level Pressure  
Sea Level Pressure 30.24 in    
Wind  
Wind Speed 4 mph (SSW)    
Max Wind Speed 15 mph    
Max Gust Speed 20 mph    
Visibility 10 miles    
Events      
T = Trace of Precipitation, MM = Missing Value Source: NWS Daily Summary

Daily Weather History Graph

Daily Weather History Graph

Search for Another Location

Airport or City:

Trip Planner

Search our weather history database for the weather conditions in past years. The results will help you decide how hot, cold, wet, or windy it might be!

Date:

Astronomy

Nov. 11, 2013 Rise Set
Actual Time 6:52 AM EST 5:09 PM EST
Civil Twilight 6:24 AM EST 5:36 PM EST
Nautical Twilight 5:53 AM EST 6:08 PM EST
Astronomical Twilight 5:22 AM EST 6:38 PM EST
Moon 1:42 PM EST (11/11) 12:43 AM EST (11/11)
Length of Visible Light 11h 12m
Length of Day
10h 17m
Waxing Gibbous, 66% of the Moon is Illuminated
Nov 11
Waxing Gibbous
Nov 17
Full
Nov 25
Last Quarter
Dec 2
New
Dec 9
First Quarter

Hourly Weather History & Observations

Time (EST) Temp. Windchill Dew Point Humidity Pressure Visibility Wind Dir Wind Speed Gust Speed Precip Events Conditions
12:54 AM 42.1 °F - 24.1 °F 49% 30.27 in 10.0 mi Calm Calm - N/A   Clear
1:54 AM 37.9 °F 34.4 °F 25.0 °F 60% 30.29 in 10.0 mi East 4.6 mph - N/A   Clear
2:54 AM 35.1 °F - 25.0 °F 67% 30.29 in 10.0 mi Calm Calm - N/A   Clear
3:54 AM 32.0 °F - 25.0 °F 75% 30.29 in 10.0 mi Calm Calm - N/A   Clear
4:54 AM 30.0 °F - 24.1 °F 79% 30.31 in 10.0 mi Calm Calm - N/A   Clear
5:54 AM 28.9 °F - 24.1 °F 82% 30.32 in 10.0 mi Calm Calm - N/A   Clear
6:54 AM 26.1 °F - 23.0 °F 88% 30.32 in 10.0 mi Calm Calm - N/A   Clear
7:54 AM 33.1 °F 28.7 °F 26.1 °F 75% 30.33 in 10.0 mi SSW 4.6 mph - N/A   Clear
8:54 AM 43.0 °F - 26.1 °F 51% 30.35 in 10.0 mi Calm Calm - N/A   Clear
9:54 AM 48.0 °F - 26.1 °F 42% 30.35 in 10.0 mi Calm Calm - N/A   Clear
10:54 AM 51.1 °F - 26.1 °F 38% 30.34 in 10.0 mi SSW 6.9 mph - N/A   Clear
11:54 AM 53.1 °F - 24.1 °F 32% 30.30 in 10.0 mi South 13.8 mph - N/A   Clear
12:54 PM 55.9 °F - 23.0 °F 28% 30.25 in 10.0 mi SSW 10.4 mph - N/A   Clear
1:54 PM 57.0 °F - 24.1 °F 28% 30.21 in 10.0 mi South 10.4 mph - N/A   Clear
2:54 PM 57.9 °F - 23.0 °F 26% 30.20 in 10.0 mi SW 8.1 mph - N/A   Clear
3:54 PM 55.9 °F - 23.0 °F 28% 30.19 in 10.0 mi South 9.2 mph - N/A   Clear
4:54 PM 51.1 °F - 24.1 °F 35% 30.18 in 10.0 mi SSW 4.6 mph - N/A   Clear
5:54 PM 46.9 °F - 25.0 °F 42% 30.19 in 10.0 mi Calm Calm - N/A   Clear
6:54 PM 45.0 °F 42.6 °F 26.1 °F 48% 30.17 in 10.0 mi SSW 4.6 mph - N/A   Clear
7:54 PM 42.1 °F - 26.1 °F 53% 30.17 in 10.0 mi Calm Calm - N/A   Clear
8:54 PM 37.9 °F - 27.0 °F 65% 30.15 in 10.0 mi Calm Calm - N/A   Clear
9:54 PM 39.0 °F 36.8 °F 27.0 °F 62% 30.13 in 10.0 mi SSW 3.5 mph - N/A   Clear
10:54 PM 42.1 °F 37.7 °F 28.9 °F 60% 30.12 in 10.0 mi SSW 6.9 mph - N/A   Clear
11:54 PM 41.0 °F 37.1 °F 28.0 °F 60% 30.10 in 10.0 mi SSW 5.8 mph - N/A   Scattered Clouds